Location: Banff
(51.1667°N, 115.5667°W)
Time: 23:09:04
(UTC+00:00)

ISS - Visible Passes

Search period start: 19 October 2020 00:00
Search period end: 29 October 2020 00:00
Orbit: 418 x 419 km, 51.6° (Epoch: 19 October)

Date Brightness Start Highest point End Pass type
(mag) Time Alt. Az. Time Alt. Az. Time Alt. Az.
22 Oct -0.9 13:24:20 10° S 13:26:26 16° SE 13:28:31 10° ESE visible
23 Oct -0.6 12:38:15 10° SSE 12:38:56 10° SE 12:39:36 10° SE visible
24 Oct -2.0 13:24:24 10° SSW 13:27:24 31° SSE 13:30:25 10° E visible
25 Oct -1.6 12:37:25 12° SSW 12:39:48 22° SE 12:42:28 10° E visible
26 Oct -1.2 11:52:03 15° SE 11:52:15 15° SE 11:54:20 10° ESE visible
26 Oct -3.2 13:25:13 10° WSW 13:28:32 57° SSE 13:31:51 10° E visible
27 Oct -2.8 12:39:32 28° SSW 12:40:51 42° SSE 12:44:03 10° E visible
28 Oct -1.9 11:53:57 27° ESE 11:53:57 27° ESE 11:56:13 10° E visible
28 Oct -3.8 13:26:55 14° WSW 13:29:46 86° S 13:33:09 10° E visible
